Starlink 32480

operational
NORAD ID: 62039 Int'l Des: 2024-216 Owner: SPXS Country: US Constellation: starlink
LEOCIRCULAR

About Starlink 32480

Description loading...

Live Position

Loading 3D Globe...

Upcoming Passes

Altitude History

Altitude vs Time

uPlot chart will show altitude changes over time

Two-Line Element Set

1 62039U 24216H 25351.30490847 .00029411 00000-0 10734-2 0 9990
2 62039 43.0022 1.7879 0001249 255.1290 104.9424 15.27599828 60113
Epoch: Dec 17, 2025 • Age: 12 hours

Current Status

Altitude 483.3 km
Velocity 7.63 km/s
Sub-Earth Point -5.47°S, 171.39°E
Launch Date Nov 21, 2024
Age 1 years
Type internet

Technical Details

Classification Payload
Mass 730.00 kg
Dry Mass 700.00 kg
Total Mass 730.00 kg
Length 0.30 m
Diameter 4.10 m
Span 29.00 m
Shape Box + pan
Manufacturer SPXS
Bus Type Starlink V2M
Phase Status In Orbit
Owner/State SPXS/US

Large Constellations

Loading constellations...